Regional Weather Roundup
Issued by NWS

Home | Current Version | Previous Version | Text Only | Print | Product List | Glossary Off
Versions: 1 2 3 4 5 6 7 8 9 10 11 12 13 14 15 16 17 18 19 20 21 22 23 24 25 26

000
ASUS45 KBOI 270510
RWRID

IDAHO REGIONAL WEATHER ROUNDUP
NATIONAL WEATHER SERVICE BOISE ID
1100 PM MDT WED JUL 26 2017

NOTE: "FAIR" INDICATES FEW OR NO CLOUDS BELOW 12000 FEET
WITH NO SIGNIFICANT WEATHER AND/OR OBSTRUCTIONS TO VISIBILITY

IDZ012-014-270600-
SOUTHWEST IDAHO


CITY           SKY/WX    TMP DP  RH WIND       PRES   REMARKS
BOISE          MOCLDY    78  51  38 N15       30.08R
CALDWELL       MOCLDY    75  55  49 NW14      30.05R
MOUNTAIN HOME  MOCLDY    73  57  56 NE6       30.08R
$$

IDZ016-017-270600-
SOUTHCENTRAL IDAHO


CITY           SKY/WX    TMP DP  RH WIND       PRES   REMARKS
BURLEY         MOCLDY    67  52  58 S8        30.13S
JEROME         MOCLDY    70  50  49 SE13      30.13R
TWIN FALLS     CLOUDY    70  49  47 S12       30.13R
$$

IDZ019>023-270600-
SOUTHEAST IDAHO


CITY           SKY/WX    TMP DP  RH WIND       PRES   REMARKS
IDAHO FALLS    LGT RAIN  62  58  86 SE16      30.22F
POCATELLO      MOCLDY    67  55  65 NE13      30.20R
REXBURG        LGT RAIN  61  58  90 NW7       30.24S
$$

IDZ006-010-011-018-031-032-270600-
CENTRAL IDAHO MOUNTAINS


CITY           SKY/WX    TMP DP  RH WIND       PRES   REMARKS
MCCALL         MOCLDY    64  46  52 S9        30.17R
HAILEY         MOCLDY    64  50  59 W7        30.21R
STANLEY          N/A     54  49  83 S3        30.29R
SALMON         NOT AVBL
CHALLIS        CLOUDY    65  50  58 CALM      30.20R
$$

IDZ002-004-006-007-026-270600-
NORTHERN IDAHO


CITY           SKY/WX    TMP DP  RH WIND       PRES   REMARKS
LEWISTON       CLEAR     84  41  21 S5        29.92R
LOWELL           N/A     72  57  59 CALM      29.98R
COEUR D`ALENE  PTCLDY    75  54  47 SE5       29.98R
MULLAN PASS    PTCLDY    67  32  27 W3        30.22F
$$




USA.gov is the U.S. government's official web portal to all federal, state and local government web resources and services.